BMCB-36 Weather Reports


Display with metric or nautical units.
time (UTC)temp
F
wind
direction
speed
MPH
gust
MPH
rain 1hr
in
rain 24hr
in
rain mn
in
humidity
%
barometer
mb
20260503021043 57 0 0.0 0.0 0.00 0.36 0.00 90 1014.1
20260503015042 57 0 0.0 0.0 0.00 0.36 0.00 89 1014.3
20260503014043 57 0 0.0 0.0 0.00 0.36 0.00 89 1014.3
20260503013044 58 0 0.0 0.0 0.00 0.36 0.00 88 1014.3
20260503012044 58 0 0.0 0.0 0.00 0.36 0.00 88 1014.4
20260503011042 58 0 0.0 0.0 0.00 0.36 0.00 88 1014.4
20260503005046 57 0 0.0 0.0 0.00 0.36 0.00 90 1014.6
20260503004044 57 0 0.0 0.0 0.00 0.36 0.00 91 1014.7
20260503003044 58 0 0.0 0.0 0.00 0.36 0.00 90 1014.8
20260503002045 58 0 0.0 0.0 0.00 0.36 0.00 89 1014.8
20260503001044 58 0 0.0 0.0 0.00 0.36 0.00 88 1014.8
20260503000047 59 0 0.0 0.0 0.00 0.36 0.00 86 1014.8
20260502235047 59 0 0.0 0.0 0.00 0.36 0.00 86 1014.9
20260502233047 59 0 0.0 0.0 0.00 0.36 0.00 87 1015.0
20260502232047 59 0 0.0 0.0 0.00 0.36 0.00 88 1015.0
20260502231045 59 0 0.0 0.0 0.00 0.36 0.00 87 1015.1
20260502230045 59 0 0.0 0.0 0.00 0.36 0.00 88 1015.1
20260502224045 59 0 0.0 0.0 0.00 0.36 0.00 88 1015.3
20260502221045 59 0 0.0 0.0 0.00 0.36 0.00 88 1015.3
20260502220046 59 0 0.0 0.0 0.00 0.36 0.00 87 1015.3
20260502215047 59 0 0.0 0.0 0.00 0.36 0.36 87 1015.3
20260502214047 59 0 0.0 0.0 0.00 0.36 0.36 86 1015.4
20260502213050 59 0 0.0 0.0 0.00 0.36 0.36 87 1015.5
20260502212048 59 0 0.0 0.0 0.00 0.36 0.36 87 1015.5
20260502211047 59 0 0.0 0.0 0.00 0.36 0.36 86 1015.5
20260502210049 59 0 0.0 0.0 0.00 0.36 0.36 87 1015.6
20260502203051 59 0 0.0 0.0 0.00 0.36 0.36 89 1015.6
20260502201059 59 0 0.0 0.0 0.00 0.36 0.36 92 1015.7
20260502200051 59 0 0.0 0.0 0.00 0.36 0.36 92 1015.8
20260502194045 60 0 0.0 0.0 0.00 0.36 0.36 92 1015.7
20260502193047 60 0 0.0 0.0 0.01 0.36 0.36 92 1015.8
20260502192048 60 0 0.0 0.0 0.01 0.36 0.36 92 1015.8
20260502184048 61 0 0.0 0.0 0.02 0.36 0.36 88 1015.9
20260502183046 61 0 0.0 0.0 0.15 0.36 0.36 86 1015.8
20260502182046 61 0 0.0 0.0 0.33 0.35 0.35 88 1015.8
20260502181048 60 0 0.0 0.0 0.35 0.35 0.35 88 1016.0
20260502164046 74 0 0.0 0.0 0.00 0.00 0.00 52 1014.7
20260502162045 75 0 0.0 0.0 0.00 0.00 0.00 50 1015.1
20260502161049 74 0 0.0 0.0 0.00 0.00 0.00 50 1015.4
20260502151047 75 0 0.0 0.0 0.00 0.00 0.00 50 1015.8
20260502123045 71 0 0.0 0.0 0.00 0.00 0.00 59 1018.5
20260502122046 71 0 0.0 0.0 0.00 0.00 0.00 59 1018.6
20260502121043 71 0 0.0 0.0 0.00 0.00 0.00 59 1018.6
20260502115042 72 0 0.0 0.0 0.00 0.00 0.00 60 1018.9
20260502114044 71 0 0.0 0.0 0.00 0.00 0.00 60 1019.1
20260502113044 71 0 0.0 0.0 0.00 0.00 0.00 59 1019.1
20260502112045 72 0 0.0 0.0 0.00 0.00 0.00 59 1019.2
20260502111044 72 0 0.0 0.0 0.00 0.00 0.00 59 1019.3
20260502110042 72 0 0.0 0.0 0.00 0.00 0.00 59 1019.3
20260502104043 71 0 0.0 0.0 0.00 0.00 0.00 59 1019.6
20260502103044 71 0 0.0 0.0 0.00 0.00 0.00 60 1019.6
20260502102044 70 0 0.0 0.0 0.00 0.00 0.00 60 1019.7
20260502101046 71 0 0.0 0.0 0.00 0.00 0.00 61 1019.8
20260502091045 68 0 0.0 0.0 0.00 0.00 0.00 64 1020.4
20260502065046 56 0 0.0 0.0 0.00 0.00 0.00 66 1021.8
20260502064045 56 0 0.0 0.0 0.00 0.00 0.00 65 1021.8
20260502063045 56 0 0.0 0.0 0.00 0.00 0.00 64 1021.9
20260502062043 56 0 0.0 0.0 0.00 0.00 0.00 62 1021.9
20260502061046 56 0 0.0 0.0 0.00 0.00 0.00 61 1022.0
20260502060044 56 0 0.0 0.0 0.00 0.00 0.00 60 1021.9
20260502055045 56 0 0.0 0.0 0.00 0.00 0.00 60 1021.9
20260502054045 57 0 0.0 0.0 0.00 0.00 0.00 62 1021.8
20260502053045 57 0 0.0 0.0 0.00 0.00 0.00 62 1021.7
20260502052042 56 0 0.0 0.0 0.00 0.00 0.00 60 1021.7
20260502051042 56 0 0.0 0.0 0.00 0.00 0.00 58 1021.8
20260502045045 56 0 0.0 0.0 0.00 0.00 0.00 57 1021.6
20260502044045 56 0 0.0 0.0 0.00 0.00 0.00 57 1021.7
20260502043045 56 0 0.0 0.0 0.00 0.00 0.00 56 1021.7
20260502042043 55 0 0.0 0.0 0.00 0.00 0.00 56 1021.6
20260502041041 55 0 0.0 0.0 0.00 0.00 0.00 55 1021.4
20260502040045 55 0 0.0 0.0 0.00 0.00 0.00 55 1021.6
20260502035045 55 0 0.0 0.0 0.00 0.00 0.00 54 1021.8
20260502034044 55 0 0.0 0.0 0.00 0.00 0.00 54 1021.9
20260502033045 55 0 0.0 0.0 0.00 0.00 0.00 53 1022.0
20260502032046 55 0 0.0 0.0 0.00 0.00 0.00 54 1022.2
20260502031044 55 0 0.0 0.0 0.00 0.00 0.00 54 1022.3
20260502024042 52 0 0.0 0.0 0.00 0.00 0.00 58 1022.4
20260502023043 53 0 0.0 0.0 0.00 0.00 0.00 57 1022.4